Location: Campillo
(40.8621°N, 4.2488°W)
Time: 11:26:14
(UTC+00:00)

Cosmos 1821 Rocket - Pass Details

Date: 11 May 2021
Orbit: 945 x 1004 km, 82.9° (Epoch: 14 June)

Event Time Altitude Azimuth Distance (km) Brightness Sun altitude
Rises 23:32:34 0° 357° (N) 3,740 8.2 -30.2°
Reaches altitude 10° 23:35:12 10° 2° (N) 2,786 7.2 -30.3°
Enters shadow 23:41:25 51° 78° (ENE) 1,239 4.4 -30.5°
